Regional Weather Roundup
Issued by NWS Boston, MA

Current Version | Previous Version | Text Only | Print | Product List | Glossary On
Versions: 1 2 3 4 5 6 7 8 9 10 11 12 13 14 15 16 17 18 19 20 21 22 23 24 25 26 27 28 29 30 31 32 33 34 35 36 37 38 39 40 41 42 43 44 45 46 47 48 49 50
000
ASUS41 KBOX 301010
RWRBOX

REGIONAL WEATHER ROUNDUP
NATIONAL WEATHER SERVICE TAUNTON MA
500 AM EST FRI JAN 30 2015

NOTE:  "FAIR" INDICATES FEW OR NO CLOUDS BELOW 12,000 FEET WITH NO
SIGNIFICANT WEATHER AND/OR OBSTRUCTIONS TO VISIBILITY.  THE FOLLOWING
OBSERVATION LOCATIONS DO NOT REPORT PRESENT WEATHER...PROVINCETOWN...
SMITHFIELD...BLOCK ISLAND...KEENE...AND OXFORD.

MAZALL-301100-
EASTERN MASSACHUSETTS

CITY           SKY/WX    TMP DP  RH WIND       PRES   REMARKS
BOSTON         LGT SNOW  31  27  85 S6        29.89F FOG     WCI  25
BEVERLY        CLOUDY    34  28  79 SE12      29.88F WCI  25
LAWRENCE       FLURRIES  30  27  88 SE5       29.89F WCI  25
BEDFORD        FLURRIES  30  26  85 S5        29.87F WCI  25
BLUE HILL        N/A     28  26  92 SE13      29.84F WCI  17
NORWOOD        LGT SNOW  30  28  92 SE5       29.88F FOG     WCI  25
MARSHFIELD     CLOUDY    34  32  93 SE9       29.91F WCI  26
PLYMOUTH       CLOUDY    32  28  85 SE7       29.89F WCI  26
TAUNTON        CLOUDY    33  29  85 SE6       29.88F WCI  28
NEW BEDFORD    MIX PCPN  34  30  85 SE7       29.88F WCI  28
$$

MAZALL-301100-
CAPE COD AND THE ISLANDS

CITY           SKY/WX    TMP DP  RH WIND       PRES   REMARKS
FALMOUTH       CLOUDY    34  30  86 SE12      29.89F WCI  25
HYANNIS        CLOUDY    35  31  85 SE7       29.88F WCI  29
CHATHAM        CLOUDY    36  30  79 SE6       29.92F WCI  31
PROVINCETOWN   CLOUDY    34  30  86 SE8       29.90F WCI  27
NANTUCKET      CLOUDY    37  31  78 SE16      29.90F WCI  28
MARTHAS VNYRD  LGT RAIN  35  31  85 SE8       29.89F WCI  29
$$

MAZALL-301100-
CENTRAL AND WESTERN MASSACHUSETTS

CITY           SKY/WX    TMP DP  RH WIND       PRES   REMARKS
WORCESTER      CLOUDY    26  25  96 S5        29.82F WCI  20
FITCHBURG      LGT SNOW  27  23  85 CALM      29.87F FOG
ORANGE         MIX PCPN  27  25  92 CALM      29.84F
SPRINGFIELD    LGT SNOW  27  25  93 NW1       29.84F FOG
WESTFIELD      LGT SNOW  28  24  85 CALM      29.84F FOG
NORTH ADAMS    LGT SNOW  28  26  92 CALM      29.81F FOG
PITTSFIELD     LGT SNOW  27  25  92 SW6       29.77F FOG     WCI  20
$$

RIZALL-301100-
RHODE ISLAND

CITY           SKY/WX    TMP DP  RH WIND       PRES   REMARKS
PROVIDENCE     CLOUDY    31  29  92 CALM      29.88F
NEWPORT        CLOUDY    35  33  92 SE7       29.87F WCI  29
BLOCK ISLAND   CLOUDY    37  32  81 W7        29.86F
SMITHFIELD     CLOUDY    30  25  80 CALM      29.85F
WESTERLY       CLOUDY    36  33  89 CALM      29.87F
$$

CTZALL-301100-
CONNECTICUT

CITY           SKY/WX    TMP DP  RH WIND       PRES   REMARKS
BRADLEY INTL   LGT SNOW  29  25  85 S5        29.85F FOG     WCI  24
HARTFORD       LGT SNOW  31  29  92 S5        29.86F FOG     WCI  26
BRIDGEPORT     CLOUDY    32  32 100 CALM      29.86F
DANBURY        FLURRIES  31  25  78 SW5       29.85S WCI  26
GROTON         CLOUDY    34  32  92 W3        29.87F
NEW HAVEN      CLOUDY    32  31  96 CALM      29.86F
CHESTER        CLOUDY    32  32 100 W3        29.85F
MERIDEN        CLOUDY    30  29  96 CALM      29.86F FOG
WILLIMANTIC    LGT SNOW  29  26  89 CALM      29.86F FOG
OXFORD         CLOUDY    30  23  74 CALM      29.83F
$$

MEZ002-015-021-024-NHZ003-005-008-011-012-014-VTZ005-008-301100-
NORTHERN NEW ENGLAND

CITY           SKY/WX    TMP DP  RH WIND       PRES   REMARKS
PORTLAND ME    LGT SNOW  28  26  92 CALM      29.90F FOG
BANGOR ME      CLOUDY    18  12  77 CALM      29.93F
CONCORD NH     LGT SNOW  27  24  89 CALM      29.88F FOG
MANCHESTER NH  LGT SNOW  26  24  92 CALM      29.87F FOG
NASHUA NH      LGT SNOW  25  25 100 NW5       29.90S FOG     WCI  19
PORTSMOUTH NH  FLURRIES  32  29  91 S7        29.88F WCI  25
JAFFREY NH     CLOUDY    26  23  88 S5        29.81F WCI  20
KEENE NH       CLOUDY    27  25  93 CALM      29.83F
BURLINGTON VT  LGT SNOW  28  24  85 S12       29.80S VSB 1   WCI  18
MT. WASHINGTON SNOW       9   9 100 SW43G53     N/A  VSB 0   WCI -17
$$

NYZ052-076-301100-
EASTERN NEW YORK

CITY           SKY/WX    TMP DP  RH WIND       PRES   REMARKS
ALBANY         LGT SNOW  28  24  85 S8        29.84F FOG     WCI  20
NEW YORK CITY  FLURRIES  35  27  72 SW8       29.85F WCI  29
$$

ANZALL-301100-
MARINE OBSERVATIONS

STATION/POSITION TIME  TEMP    WIND        PRES    VSBY  WAVE
                       AIR SEA DIR/SP/G                  HT/PER
                 (UTC) (F)     (DEG/KT/KT) (MB)    (MI)  (FT/S)
BOSTON BUOY      0950   35 40  150/ 17/ 19 1012.2F         3/11
BUZZARDS BAY     0900          130/ 19/ 21 1012.5F
NANTUCKET SOUND  NOT AVBL
MASS BAY-STELLWA 0904   33 41  140/ 14/ 17   N/A    1 3/4
ISLE OF SHOALS   1000   35     160/ 17/ 19 1011.5F
S OF BLOCK IS    0908      42                N/A           3/11
$$

......................KEY.........................
  SKY/WX - SKY CONDITION/PRESENT WEATHER
  TMP    - TEMPERATURE IN FAHRENHEIT
  DWPT   - DEWPOINT IN FAHRENHEIT
  RH     - RELATIVE HUMIDITY IN PERCENT
  WIND   - DIRECTION AND SPEED IN MPH
  PRES   - MEAN SEA LEVEL PRESSURE IN INCHES OF HG
  WCI    - WIND CHILL INDEX
  VSB    - VISIBILITY IN MILES
  HX     - HEAT INDEX
  TC     - TEMPERATURE IN CELSIUS
  VRB    - VARIABLE WIND DIRECTION
  N/A    - NOT AVAILABLE


USA.gov is the U.S. government's official web portal to all federal, state and local government web resources and services.